Weather History for KFWA - February, 2013

Change the Weather History Date:

Wednesday, February 6, 2013

  Actual Average Record
Temperature  
Mean Temperature 28 °F 26 °F  
Max Temperature 31 °F 34 °F 61 °F (1938)
Min Temperature 25 °F 18 °F -13 °F (1977)
Degree Days  
Heating Degree Days 37 39  
Month to date heating degree days 281 235  
Since 1 July heating degree days 3628 3806  
Cooling Degree Days 0 0  
Month to date cooling degree days 0 0  
Year to date cooling degree days 0 0  
Moisture  
Dew Point 21 °F    
Average Humidity 76    
Maximum Humidity 88    
Minimum Humidity 63    
Precipitation  
Precipitation T in 0.07 in 1.22 in (1942)
Month to date precipitation 0.22 0.42  
Year to date precipitation 3.65 2.68  
Snow  
Snow 0.00 in 0.30 in 7.70 in (1952)
Month to date snowfall 4.1 1.9  
Since 1 July snowfall 16.3 22.6  
Snow Depth 3.00 in    
Sea Level Pressure  
Sea Level Pressure 30.21 in    
Wind  
Wind Speed 6 mph (ESE)    
Max Wind Speed 14 mph    
Max Gust Speed 17 mph    
Visibility 9 miles    
Events      
T = Trace of Precipitation, MM = Missing Value Source: NWS Daily Summary

Daily Weather History Graph

Daily Weather History Graph

Search for Another Location

Airport or City:

Trip Planner

Search our weather history database for the weather conditions in past years. The results will help you decide how hot, cold, wet, or windy it might be!

Date:

Astronomy

Feb. 06, 2013 Rise Set
Actual Time 7:45 AM EST 6:04 PM EST
Civil Twilight 7:17 AM EST 6:33 PM EST
Nautical Twilight 6:44 AM EST 7:05 PM EST
Astronomical Twilight 6:12 AM EST 7:37 PM EST
Moon 4:29 AM EST (2/6) 2:21 PM EST (2/6)
Length of Visible Light 11h 16m
Length of Day
10h 18m
Waning Crescent, 17% of the Moon is Illuminated
Feb 6
Waning Crescent
Feb 10
New
Feb 17
First Quarter
Feb 25
Full
Mar 4
Last Quarter

Hourly Weather History & Observations

Time (EST) Temp. Windchill Dew Point Humidity Pressure Visibility Wind Dir Wind Speed Gust Speed Precip Events Conditions
12:31 AM 30.2 °F 21.3 °F 26.6 °F 86% 30.02 in 7.0 mi WNW 10.4 mph - 0.00 in   Light Freezing Drizzle
12:54 AM 30.0 °F 20.5 °F 24.1 °F 79% 30.06 in 9.0 mi WNW 11.5 mph - 0.00 in   Light Freezing Drizzle
1:07 AM 30.2 °F 21.9 °F 24.8 °F 80% 30.04 in 9.0 mi WNW 9.2 mph - 0.00 in   Overcast
1:54 AM 30.0 °F 21.7 °F 24.1 °F 79% 30.09 in 8.0 mi WNW 9.2 mph - 0.00 in   Overcast
2:54 AM 28.4 °F 21.2 °F 21.2 °F 74% 30.09 in 10.0 mi WNW 6.9 mph - N/A   Overcast
3:16 AM 28.4 °F 22.2 °F 21.2 °F 74% 30.10 in 10.0 mi WNW 5.8 mph - N/A   Overcast
3:54 AM 28.9 °F 23.9 °F 21.9 °F 75% 30.12 in 10.0 mi NW 4.6 mph - N/A   Overcast
4:54 AM 28.9 °F 23.9 °F 21.0 °F 72% 30.15 in 10.0 mi NW 4.6 mph - N/A   Overcast
5:29 AM 28.4 °F 23.3 °F 21.2 °F 74% 30.14 in 10.0 mi WNW 4.6 mph - N/A   Overcast
5:54 AM 28.0 °F 24.2 °F 21.0 °F 75% 30.19 in 10.0 mi NW 3.5 mph - N/A   Overcast
6:44 AM 26.6 °F 21.2 °F 21.2 °F 80% 30.18 in 8.0 mi NNE 4.6 mph - N/A   Overcast
6:54 AM 28.0 °F - 21.9 °F 78% 30.22 in 8.0 mi Calm Calm - N/A   Overcast
7:54 AM 25.0 °F - 21.0 °F 85% 30.25 in 7.0 mi Calm Calm - N/A   Overcast
8:54 AM 25.0 °F 20.7 °F 21.0 °F 85% 30.26 in 8.0 mi SE 3.5 mph - N/A   Mostly Cloudy
9:54 AM 27.0 °F 21.6 °F 19.9 °F 75% 30.27 in 8.0 mi ESE 4.6 mph - N/A   Scattered Clouds
10:54 AM 28.0 °F 22.8 °F 19.0 °F 69% 30.29 in 10.0 mi SE 4.6 mph - N/A   Scattered Clouds
11:54 AM 28.9 °F 25.2 °F 18.0 °F 64% 30.30 in 10.0 mi ESE 3.5 mph - N/A   Scattered Clouds
12:54 PM 30.2 °F 25.4 °F 19.4 °F 64% 30.25 in 10.0 mi ESE 4.6 mph - N/A   Partly Cloudy
1:54 PM 30.0 °F 24.1 °F 19.0 °F 64% 30.27 in 10.0 mi ESE 5.8 mph - N/A   Clear
2:54 PM 30.9 °F 24.3 °F 21.0 °F 67% 30.28 in 10.0 mi SSE 6.9 mph - N/A   Partly Cloudy
3:54 PM 30.9 °F 25.2 °F 21.0 °F 67% 30.27 in 10.0 mi ESE 5.8 mph - N/A   Partly Cloudy
4:54 PM 30.9 °F 24.3 °F 21.0 °F 67% 30.28 in 10.0 mi ESE 6.9 mph - N/A   Partly Cloudy
5:54 PM 28.9 °F 21.9 °F 19.9 °F 69% 30.27 in 10.0 mi ESE 6.9 mph - N/A   Scattered Clouds
6:54 PM 26.1 °F 19.4 °F 19.0 °F 75% 30.29 in 10.0 mi East 5.8 mph - N/A   Scattered Clouds
7:54 PM 25.0 °F 18.1 °F 18.0 °F 75% 30.28 in 10.0 mi East 5.8 mph - N/A   Mostly Cloudy
8:54 PM 26.1 °F 18.4 °F 19.0 °F 75% 30.27 in 10.0 mi East 6.9 mph - N/A   Mostly Cloudy
9:54 PM 27.0 °F 18.7 °F 19.9 °F 75% 30.25 in 9.0 mi ESE 8.1 mph - N/A   Mostly Cloudy
10:54 PM 27.0 °F 19.5 °F 21.0 °F 78% 30.23 in 10.0 mi SSE 6.9 mph - N/A   Overcast
11:54 PM 28.0 °F 22.8 °F 21.9 °F 78% 30.24 in 10.0 mi ESE 4.6 mph - N/A   Overcast